| time (UTC) | temp F | wind direction | speed knots | gust knots | rain 1hr in | rain 24hr in | rain mn in | humidity % | barometer mb |
| 20260507231546 | 53 | 297 | 2.6 | 7.8 | 0.00 | 0.85 | 0.85 | 97 | 1002.2 |
| 20260507230046 | 53 | 312 | 2.6 | 5.2 | 0.00 | 0.85 | 0.85 | 98 | 1002.0 |
| 20260507224543 | 53 | 214 | 0.0 | 4.3 | 0.00 | 0.85 | 0.85 | 98 | 1002.1 |
| 20260507223042 | 53 | 214 | 1.7 | 10.4 | 0.00 | 0.85 | 0.85 | 97 | 1002.0 |
| 20260507221541 | 53 | 214 | 7.0 | 10.4 | 0.00 | 0.85 | 0.85 | 98 | 1001.9 |
| 20260507220040 | 53 | 213 | 2.6 | 9.6 | 0.00 | 0.85 | 0.85 | 98 | 1001.9 |
| 20260507214545 | 53 | 230 | 9.6 | 13.9 | 0.00 | 0.85 | 0.85 | 98 | 1001.4 |
| 20260507213045 | 52 | 156 | 5.2 | 11.3 | 0.00 | 0.85 | 0.85 | 98 | 1001.8 |
| 20260507211548 | 52 | 145 | 3.5 | 8.7 | 0.00 | 0.85 | 0.85 | 98 | 1002.3 |
| 20260507210041 | 52 | 129 | 1.7 | 9.6 | 0.02 | 0.85 | 0.85 | 98 | 1002.2 |
| 20260507204539 | 51 | 122 | 7.8 | 13.0 | 0.03 | 0.85 | 0.85 | 98 | 1001.4 |
| 20260507203036 | 51 | 119 | 7.8 | 13.9 | 0.06 | 0.85 | 0.85 | 98 | 1001.5 |
| 20260507201543 | 51 | 117 | 8.7 | 14.8 | 0.11 | 0.85 | 0.85 | 98 | 1001.4 |
| 20260507200038 | 52 | 123 | 8.7 | 14.8 | 0.17 | 0.83 | 0.83 | 98 | 1002.0 |
| 20260507194531 | 52 | 113 | 6.1 | 8.7 | 0.22 | 0.82 | 0.82 | 98 | 1002.7 |
| 20260507193034 | 52 | 149 | 7.0 | 10.4 | 0.26 | 0.79 | 0.79 | 98 | 1002.7 |
| 20260507191528 | 52 | 166 | 5.2 | 9.6 | 0.28 | 0.74 | 0.74 | 97 | 1003.2 |
| 20260507190026 | 52 | 158 | 6.1 | 12.2 | 0.31 | 0.67 | 0.67 | 97 | 1003.6 |
| 20260507184525 | 52 | 193 | 8.7 | 13.9 | 0.35 | 0.60 | 0.60 | 97 | 1003.9 |
| 20260507183023 | 53 | 205 | 8.7 | 15.6 | 0.38 | 0.52 | 0.52 | 97 | 1004.4 |
| 20260507181523 | 53 | 179 | 7.8 | 12.2 | 0.38 | 0.45 | 0.45 | 98 | 1004.7 |
| 20260507180037 | 53 | 186 | 7.0 | 11.3 | 0.32 | 0.36 | 0.36 | 98 | 1004.7 |
| 20260507174525 | 52 | 185 | 7.8 | 13.9 | 0.22 | 0.25 | 0.25 | 98 | 1005.0 |
| 20260507173024 | 52 | 205 | 8.7 | 14.8 | 0.12 | 0.13 | 0.13 | 97 | 1005.1 |
| 20260507171516 | 51 | 171 | 7.8 | 17.4 | 0.06 | 0.06 | 0.06 | 97 | 1004.6 |
| 20260507170031 | 51 | 190 | 12.2 | 20.9 | 0.03 | 0.04 | 0.04 | 97 | 1004.5 |
| 20260507164512 | 51 | 142 | 10.4 | 17.4 | 0.02 | 0.03 | 0.03 | 97 | 1004.9 |
| 20260507161507 | 51 | 155 | 10.4 | 20.9 | 0.00 | 0.01 | 0.01 | 96 | 1005.6 |
| 20260507160004 | 51 | 141 | 12.2 | 22.6 | 0.00 | 0.01 | 0.01 | 96 | 1006.0 |
| 20260507154504 | 52 | 150 | 13.9 | 21.7 | 0.00 | 0.01 | 0.01 | 95 | 1006.4 |
| 20260507153107 | 52 | 157 | 13.0 | 23.5 | 0.00 | 0.01 | 0.01 | 96 | 1007.0 |
| 20260507144552 | 54 | 165 | 12.2 | 20.0 | 0.00 | 0.01 | 0.01 | 94 | 1008.2 |
| 20260507143103 | 55 | 157 | 13.9 | 24.3 | 0.00 | 0.01 | 0.01 | 94 | 1008.2 |
| 20260507141550 | 55 | 144 | 13.9 | 20.0 | 0.00 | 0.01 | 0.01 | 94 | 1008.3 |
| 20260507140047 | 54 | 174 | 12.2 | 20.0 | 0.00 | 0.01 | 0.01 | 95 | 1008.7 |
| 20260507134546 | 54 | 166 | 12.2 | 21.7 | 0.00 | 0.01 | 0.01 | 95 | 1008.8 |
| 20260507133048 | 53 | 160 | 10.4 | 20.9 | 0.00 | 0.01 | 0.01 | 95 | 1009.3 |
| 20260507131549 | 54 | 167 | 13.0 | 25.2 | 0.00 | 0.01 | 0.01 | 95 | 1009.2 |
| 20260507130058 | 54 | 172 | 13.0 | 21.7 | 0.00 | 0.01 | 0.01 | 95 | 1009.3 |
| 20260507124546 | 54 | 170 | 14.8 | 26.9 | 0.00 | 0.01 | 0.01 | 95 | 1009.2 |
| 20260507123041 | 54 | 154 | 13.0 | 24.3 | 0.00 | 0.01 | 0.01 | 96 | 1009.4 |
| 20260507121540 | 54 | 170 | 13.9 | 21.7 | 0.01 | 0.01 | 0.01 | 96 | 1009.2 |
| 20260507120037 | 54 | 164 | 12.2 | 19.1 | 0.01 | 0.01 | 0.01 | 96 | 1009.8 |
| 20260507114536 | 54 | 174 | 13.9 | 22.6 | 0.01 | 0.01 | 0.01 | 97 | 1009.7 |
| 20260507113035 | 54 | 154 | 12.2 | 20.9 | 0.01 | 0.01 | 0.01 | 96 | 1010.1 |
| 20260507111533 | 54 | 180 | 11.3 | 17.4 | 0.00 | 0.00 | 0.00 | 96 | 1010.0 |
| 20260507110033 | 54 | 171 | 12.2 | 22.6 | 0.00 | 0.00 | 0.00 | 97 | 1009.9 |
| 20260507104531 | 54 | 161 | 13.9 | 20.9 | 0.00 | 0.00 | 0.00 | 97 | 1010.0 |
| 20260507103034 | 53 | 173 | 9.6 | 21.7 | 0.00 | 0.00 | 0.00 | 97 | 1010.1 |
| 20260507101529 | 53 | 167 | 14.8 | 21.7 | 0.00 | 0.00 | 0.00 | 97 | 1010.0 |
| 20260507100026 | 53 | 157 | 13.9 | 20.9 | 0.00 | 0.00 | 0.00 | 97 | 1010.4 |
| 20260507094523 | 53 | 166 | 10.4 | 17.4 | 0.00 | 0.00 | 0.00 | 98 | 1010.6 |
| 20260507093020 | 53 | 165 | 11.3 | 15.6 | 0.00 | 0.00 | 0.00 | 98 | 1010.9 |
| 20260507091524 | 52 | 168 | 9.6 | 15.6 | 0.00 | 0.00 | 0.00 | 98 | 1011.3 |
| 20260507090017 | 52 | 137 | 5.2 | 10.4 | 0.00 | 0.00 | 0.00 | 98 | 1010.9 |
| 20260507084533 | 51 | 157 | 7.0 | 11.3 | 0.00 | 0.00 | 0.00 | 98 | 1011.1 |
| 20260507083012 | 51 | 137 | 7.0 | 10.4 | 0.00 | 0.00 | 0.00 | 98 | 1011.7 |
| 20260507081513 | 51 | 154 | 7.8 | 13.9 | 0.00 | 0.00 | 0.00 | 98 | 1011.9 |
| 20260507080010 | 51 | 170 | 7.0 | 11.3 | 0.00 | 0.00 | 0.00 | 97 | 1012.1 |
| 20260507074510 | 51 | 153 | 7.8 | 13.0 | 0.00 | 0.00 | 0.00 | 97 | 1011.9 |
| 20260507073007 | 51 | 119 | 7.0 | 10.4 | 0.00 | 0.00 | 0.00 | 97 | 1011.7 |
| 20260507071505 | 50 | 141 | 5.2 | 9.6 | 0.00 | 0.00 | 0.00 | 97 | 1012.3 |
| 20260507070002 | 50 | 105 | 5.2 | 9.6 | 0.00 | 0.00 | 0.00 | 97 | 1012.9 |
| 20260507064501 | 50 | 129 | 4.3 | 10.4 | 0.00 | 0.00 | 0.00 | 97 | 1013.2 |
| 20260507063059 | 50 | 101 | 7.8 | 13.0 | 0.00 | 0.00 | 0.00 | 97 | 1013.3 |
| 20260507061557 | 50 | 107 | 6.1 | 11.3 | 0.00 | 0.00 | 0.00 | 97 | 1013.3 |
| 20260507060156 | 50 | 125 | 7.8 | 12.2 | 0.00 | 0.00 | 0.00 | 97 | 1013.3 |
| 20260507054611 | 50 | 118 | 7.0 | 11.3 | 0.00 | 0.00 | 0.00 | 97 | 1013.7 |
| 20260507053102 | 50 | 108 | 5.2 | 9.6 | 0.00 | 0.00 | 0.00 | 97 | 1014.1 |
| 20260507051554 | 50 | 117 | 7.0 | 9.6 | 0.00 | 0.00 | 0.00 | 97 | 1014.4 |
| 20260507050115 | 50 | 109 | 5.2 | 8.7 | 0.00 | 0.00 | 0.00 | 96 | 1014.8 |
| 20260507044551 | 50 | 111 | 6.1 | 8.7 | 0.00 | 0.00 | 0.00 | 96 | 1015.2 |
| 20260507043040 | 50 | 109 | 5.2 | 8.7 | 0.00 | 0.00 | 0.00 | 96 | 1015.5 |
| 20260507041542 | 50 | 122 | 7.0 | 8.7 | 0.00 | 0.00 | 0.00 | 96 | 1015.8 |
| 20260507040039 | 50 | 109 | 5.2 | 9.6 | 0.00 | 0.00 | 0.00 | 96 | 1016.0 |
| 20260507034532 | 50 | 109 | 7.0 | 10.4 | 0.00 | 0.00 | 0.00 | 96 | 1016.4 |
| 20260507033029 | 50 | 124 | 5.2 | 8.7 | 0.00 | 0.00 | 0.00 | 96 | 1016.7 |
| 20260507031528 | 50 | 116 | 5.2 | 8.7 | 0.00 | 0.00 | 0.00 | 96 | 1017.0 |
| 20260507030024 | 49 | 114 | 6.1 | 10.4 | 0.00 | 0.00 | 0.00 | 95 | 1017.1 |
| 20260507024522 | 50 | 116 | 7.8 | 10.4 | 0.00 | 0.00 | 0.00 | 95 | 1017.3 |
| 20260507023019 | 50 | 117 | 7.8 | 9.6 | 0.00 | 0.00 | 0.00 | 94 | 1017.3 |
| 20260507021516 | 50 | 112 | 5.2 | 8.7 | 0.00 | 0.00 | 0.00 | 94 | 1017.4 |
| 20260507020017 | 50 | 115 | 5.2 | 8.7 | 0.00 | 0.00 | 0.00 | 94 | 1017.6 |
| 20260507014512 | 51 | 127 | 7.0 | 11.3 | 0.00 | 0.00 | 0.00 | 93 | 1017.8 |
| 20260507013010 | 51 | 99 | 6.1 | 10.4 | 0.00 | 0.00 | 0.00 | 93 | 1017.7 |
| 20260507011509 | 52 | 99 | 6.1 | 9.6 | 0.00 | 0.00 | 0.00 | 93 | 1017.8 |
| 20260507010011 | 52 | 102 | 8.7 | 13.0 | 0.00 | 0.00 | 0.00 | 92 | 1017.9 |
| 20260507004507 | 52 | 97 | 7.8 | 9.6 | 0.00 | 0.00 | 0.00 | 92 | 1018.1 |
| 20260507003005 | 52 | 92 | 7.0 | 12.2 | 0.00 | 0.00 | 0.00 | 91 | 1018.1 |
| 20260507001504 | 52 | 106 | 8.7 | 13.0 | 0.00 | 0.00 | 0.00 | 90 | 1017.9 |
| 20260507000004 | 53 | 94 | 8.7 | 11.3 | 0.00 | 0.00 | 0.00 | 89 | 1018.0 |
| 20260506234501 | 53 | 129 | 7.8 | 12.2 | 0.00 | 0.00 | 0.00 | 88 | 1018.2 |
| 20260506233100 | 53 | 111 | 8.7 | 11.3 | 0.00 | 0.00 | 0.00 | 87 | 1017.9 |